sat.trackr.live / text

‹ back to catalog

SKYSAT-B

NORAD 40072 · 2014-037D

PAYLOAD ACTIVE UNKNOWN

§ Identity

Operator
Country
US
Launch date
2014-07-08
Launch site
TYMSC
Launch vehicle
Mass (kg)
RCS (m²)
0.36

Purposes: earth_obs

External: N2YO · Heavens-Above · Gunter

§ Orbital elements

Epoch: 2026-09-08T20:07:23.764800Z

Period
96.76 min
Inclination
98.3932°
Eccentricity
0.0006009
Mean motion
14.88205147 rev/d
Perigee alt
599.3 km
Apogee alt
607.7 km
Semi-major
6,981.7 km
B*
1.1422e-4
RAAN
215.6211°
Arg perigee
20.3523°
Mean anomaly
339.7931°
Rev number
65,840

§ Raw data

SKYSAT-B1 40072U 14037D   26251.83846950  .00000992  00000+0  11422-3 0  99992 40072  98.3932 215.6211 0006009  20.3523 339.7931 14.88205147658405

JSON: /api/v1/satellites/40072 · /tle

For live sub-satellite position, see the globe view (requires WebGL).

§ Visibility from observer

Set your observer location to see the next 7 days of passes ≥ 10°. The values pass through the URL so the page stays shareable.

No JS? Fill the form by hand. The geolocation button needs JavaScript.